Date String (YYYY-MM-DD hh:mm:ss) UTC,Instrument flags,Ambient pressure (hPa),Sample flow (lpm),Bypass flow (lpm),Sample temperature (°C),Ambient temperature (°C),ASC tube jacket temperature (°C),LED temperature (°C),Box temperature (°C),Sample RH (%),Span deviation,Mass concentration (μg/m³),Mass concentration (μg/m³),Mass concentration (μg/m³)
DateTimeUTC,F1_M11,P_M11,Q1_M11,Q2_M11,T1_M11,T2_M11,T3_M11,T4_M11,T5_M11,U1_M11,ZSPAN_M11,X2_M11,X0_M11,X1_M11
2021-11-24 08:00:00,,0816.9,5.00,0.00,26.1,25.2,00.0,35.1,27.9,10.6,0000.0,0002.62,0004.19,0001.98
2021-11-24 08:01:00,,0816.9,5.00,0.00,26.1,25.2,00.0,35.1,27.9,10.6,0000.0,0002.63,0004.18,0001.97
2021-11-24 08:02:00,,0816.9,5.00,0.00,26.1,25.2,00.0,35.1,27.9,10.6,0000.0,0002.60,0004.11,0001.97
2021-11-24 08:03:00,,0816.9,5.00,0.00,26.1,25.3,00.0,35.1,27.9,10.7,0000.0,0002.62,0005.51,0001.96
2021-11-24 08:04:00,,0817.1,4.99,0.00,26.1,25.3,00.0,35.1,27.9,10.6,0000.0,0002.67,0006.16,0001.97
2021-11-24 08:05:00,,0816.9,5.01,0.00,26.1,25.3,00.0,35.1,27.9,10.6,0000.0,0002.71,0006.26,0001.97
2021-11-24 08:06:00,,0817.1,5.00,0.00,26.1,25.3,00.0,35.1,27.9,10.6,0000.0,0002.76,0006.35,0001.98
2021-11-24 08:07:00,,0816.8,5.00,0.00,26.1,25.3,00.0,35.1,27.9,10.6,0000.0,0002.76,0006.40,0001.98
2021-11-24 08:08:00,,0816.8,4.99,0.00,26.1,25.3,00.0,35.1,27.9,10.6,0000.0,0002.75,0006.38,0001.99
2021-11-24 08:09:00,,0817.3,5.01,0.00,26.1,25.3,00.0,35.1,27.9,10.6,0000.0,0002.73,0006.40,0001.98
2021-11-24 08:10:00,,0817.1,5.00,0.00,26.1,25.3,00.0,35.1,28.0,10.6,0000.0,0002.73,0006.37,0001.98
2021-11-24 08:11:00,,0816.9,5.01,0.00,26.1,25.3,00.0,35.1,28.0,10.7,0000.0,0002.80,0006.43,0001.99
2021-11-24 08:12:00,,0816.9,5.00,0.00,26.1,25.3,00.0,35.1,28.0,10.7,0000.0,0002.77,0006.79,0001.98
2021-11-24 08:13:00,,0817.0,5.00,0.00,26.1,25.4,00.0,35.1,28.0,10.7,0000.0,0002.78,0007.15,0001.98
2021-11-24 08:14:00,,0817.0,4.99,0.00,26.2,25.4,00.0,35.1,28.0,10.6,0000.0,0002.74,0006.34,0001.97
2021-11-24 08:15:00,,0817.4,5.00,0.00,26.2,25.4,00.0,35.1,28.0,10.6,0000.0,0002.72,0005.26,0001.96
2021-11-24 08:16:00,,0817.4,5.00,0.00,26.2,25.4,00.0,35.1,28.0,10.7,0000.0,0002.71,0005.37,0001.96
2021-11-24 08:17:00,,0817.1,4.99,0.00,26.2,25.4,00.0,35.1,27.9,10.6,0000.0,0002.70,0005.51,0001.95
2021-11-24 08:18:00,,0817.0,5.00,0.00,26.2,25.4,00.0,35.1,28.0,10.6,0000.0,0002.68,0005.51,0001.94
2021-11-24 08:19:00,,0817.3,5.01,0.00,26.2,25.4,00.0,35.1,28.0,10.7,0000.0,0002.73,0005.71,0001.93
2021-11-24 08:20:00,,0817.3,5.01,0.00,26.2,25.4,00.0,35.1,28.0,10.6,0000.0,0002.78,0005.88,0001.95
2021-11-24 08:21:00,,0817.2,5.00,0.00,26.2,25.3,00.0,35.1,28.0,10.6,0000.0,0002.78,0005.90,0001.95
2021-11-24 08:22:00,,0816.9,4.99,0.00,26.2,25.3,00.0,35.1,27.9,10.6,0000.0,0002.72,0005.79,0001.96
2021-11-24 08:23:00,,0816.9,5.00,0.00,26.2,25.3,00.0,35.1,27.9,10.6,0000.0,0002.74,0005.60,0001.98
2021-11-24 08:24:00,,0816.9,5.00,0.00,26.2,25.3,00.0,35.2,27.9,10.6,0000.0,0002.74,0005.04,0002.01
2021-11-24 08:25:00,,0817.0,5.01,0.00,26.2,25.3,00.0,35.2,27.9,10.6,0000.0,0002.75,0005.01,0002.03
2021-11-24 08:26:00,,0817.2,4.98,0.00,26.2,25.3,00.0,35.2,28.0,10.6,0000.0,0002.75,0004.88,0002.05
2021-11-24 08:27:00,,0816.8,5.01,0.00,26.1,25.3,00.0,35.2,27.9,10.6,0000.0,0002.72,0004.72,0002.05
2021-11-24 08:28:00,,0817.0,5.01,0.00,26.2,25.3,00.0,35.2,27.9,10.6,0000.0,0002.73,0004.59,0002.07
2021-11-24 08:29:00,,0816.9,5.00,0.00,26.2,25.3,00.0,35.2,27.9,10.5,0000.0,0002.79,0004.58,0002.10
2021-11-24 08:30:00,,0816.8,4.99,0.00,26.2,25.3,00.0,35.2,27.9,10.5,0000.0,0002.82,0004.60,0002.12
2021-11-24 08:31:00,,0817.0,5.01,0.00,26.1,25.3,00.0,35.2,27.9,10.4,0000.0,0002.76,0004.33,0002.13
2021-11-24 08:32:00,,0816.9,4.99,0.00,26.2,25.2,00.0,35.2,27.9,10.4,0000.0,0002.79,0004.35,0002.16
2021-11-24 08:33:00,,0816.8,4.99,0.00,26.1,25.2,00.0,35.2,27.9,10.4,0000.0,0002.82,0004.49,0002.17
2021-11-24 08:34:00,,0816.7,5.01,0.00,26.1,25.2,00.0,35.2,27.9,10.5,0000.0,0002.82,0004.62,0002.17
2021-11-24 08:35:00,,0816.8,5.00,0.00,26.1,25.2,00.0,35.2,27.8,10.5,0000.0,0002.84,0004.68,0002.17
2021-11-24 08:36:00,,0816.8,5.00,0.00,26.1,25.2,00.0,35.2,27.8,10.5,0000.0,0002.88,0004.76,0002.18
2021-11-24 08:37:00,,0817.0,5.00,0.00,26.1,25.1,00.0,35.2,27.8,10.5,0000.0,0002.91,0004.93,0002.18
2021-11-24 08:38:00,,0817.0,5.01,0.00,26.1,25.1,00.0,35.2,27.8,10.5,0000.0,0002.91,0005.39,0002.19
2021-11-24 08:39:00,,0817.2,4.99,0.00,26.1,25.1,00.0,35.2,27.8,10.5,0000.0,0002.93,0005.69,0002.19
2021-11-24 08:40:00,,0816.7,4.99,0.00,26.1,25.1,00.0,35.2,27.8,10.5,0000.0,0002.92,0005.76,0002.19
2021-11-24 08:41:00,,0816.9,5.00,0.00,26.1,25.1,00.0,35.2,27.8,10.5,0000.0,0002.89,0005.69,0002.19
2021-11-24 08:42:00,,0817.0,5.00,0.00,26.1,25.1,00.0,35.1,27.8,10.6,0000.0,0002.90,0005.71,0002.20
2021-11-24 08:43:00,,0816.7,5.00,0.00,26.1,25.1,00.0,35.1,27.7,10.6,0000.0,0002.93,0005.83,0002.19
2021-11-24 08:44:00,,0816.7,5.01,0.00,26.1,25.1,00.0,35.1,27.8,10.5,0000.0,0002.94,0005.88,0002.19
2021-11-24 08:45:00,,0816.7,4.98,0.00,26.1,25.0,00.0,35.1,27.9,10.4,0000.0,0002.97,0006.31,0002.21
2021-11-24 08:46:00,,0816.8,5.01,0.00,26.1,25.0,00.0,35.1,27.8,10.5,0000.0,0002.99,0006.46,0002.22
2021-11-24 08:47:00,,0816.8,5.00,0.00,26.0,25.0,00.0,35.1,27.7,10.6,0000.0,0003.02,0007.53,0002.23
2021-11-24 08:48:00,,0816.7,5.00,0.00,26.0,25.0,00.0,35.1,27.7,10.6,0000.0,0003.03,0007.81,0002.23
2021-11-24 08:49:00,,0816.9,5.00,0.00,26.0,25.0,00.0,35.1,27.7,10.7,0000.0,0003.08,0007.60,0002.23
2021-11-24 08:50:00,,0817.0,5.00,0.00,26.0,24.9,00.0,35.1,27.6,10.8,0000.0,0003.05,0007.51,0002.24
2021-11-24 08:51:00,,0816.8,4.99,0.00,26.0,24.9,00.0,35.1,27.6,10.8,0000.0,0003.01,0007.59,0002.22
2021-11-24 08:52:00,,0816.9,4.99,0.00,25.9,24.8,00.0,35.1,27.6,10.8,0000.0,0002.97,0007.51,0002.19
2021-11-24 08:53:00,,0816.9,5.01,0.00,25.9,24.8,00.0,35.1,27.7,10.8,0000.0,0002.95,0007.53,0002.17
2021-11-24 08:54:00,,0816.9,5.00,0.00,25.9,24.8,00.0,35.0,27.7,10.8,0000.0,0002.92,0007.51,0002.14
2021-11-24 08:55:00,,0816.8,5.00,0.00,25.9,24.8,00.0,35.0,27.6,10.8,0000.0,0002.88,0007.46,0002.11
2021-11-24 08:56:00,,0816.9,5.01,0.00,25.9,24.8,00.0,35.0,27.5,10.9,0000.0,0002.85,0007.19,0002.07
2021-11-24 08:57:00,,0816.9,4.99,0.00,25.9,24.8,00.0,35.0,27.5,11.0,0000.0,0002.81,0007.03,0002.04
2021-11-24 08:58:00,,0816.8,5.00,0.00,25.8,24.7,00.0,35.0,27.5,11.1,0000.0,0002.82,0005.84,0002.01
2021-11-24 08:59:00,,0816.8,5.01,0.00,25.8,24.8,00.0,35.0,27.5,11.1,0000.0,0002.81,0005.68,0001.99
